User: anonymous   Login
Location: Wildlife_Club
(35.6000°N, 81.4330°W)
Time: 21:55:40
(UTC-05:00)
Language:

Cosmos 1782 - Orbit

View from above orbital plane
View from above orbital plane
View from above satellite
View from above satellite

Ground track
Ground track

The orbit data is extracted from the following two-line orbital elements,

1 16986U 86074A   15058.85816125  .00002995  00000-0  21217-3 0  9991
2 16986 082.5070 217.7572 0011300 333.6494 026.4156 15.04431883544398
Epoch (UTC): 27 February 2015 20:35:45
Eccentricity: 0.0011300
inclination: 82.5070°
perigee height: 545 km
apogee height: 561 km
right ascension of ascending node: 217.7572°
argument of perigee: 333.6494°
revolutions per day: 15.04431883
mean anomaly at epoch: 26.4156°
orbit number at epoch: 54439

The dashed part of the orbit path shows where the satellite is in the earth's shadow,  

DLR